Time,TemperatureF,DewpointF,PressureIn,WindDirection,WindDirectionDegrees,WindSpeedMPH,WindSpeedGustMPH,Humidity,HourlyPrecipIn,Conditions,Clouds,dailyrainin,SoftwareType,DateUTC
2013-05-26 00:00:00,50.0,36.2,30.00,West,270,0.0,0.0,59,0.00,,OVC,0.00,VWS V14.00,2013-05-26 04:00:00,
2013-05-26 00:01:00,50.1,36.3,30.00,NW,315,0.0,0.0,59,0.00,,OVC,0.00,VWS V14.00,2013-05-26 04:01:00,
2013-05-26 00:06:00,50.1,36.3,30.00,WNW,292,0.0,0.0,59,0.00,,OVC,0.00,VWS V14.00,2013-05-26 04:06:00,
2013-05-26 00:11:00,49.8,36.1,30.00,WSW,248,0.0,0.0,59,0.00,,OVC,0.00,VWS V14.00,2013-05-26 04:11:00,
2013-05-26 00:16:00,50.1,36.3,30.00,NW,315,1.3,1.3,59,0.00,,OVC,0.00,VWS V14.00,2013-05-26 04:16:00,
2013-05-26 00:21:00,50.1,35.9,30.00,NW,315,6.2,6.2,58,0.00,,OVC,0.00,VWS V14.00,2013-05-26 04:21:00,
2013-05-26 00:26:00,50.1,35.9,30.00,West,270,4.2,4.2,58,0.00,,OVC,0.00,VWS V14.00,2013-05-26 04:26:00,
2013-05-26 00:31:00,50.1,35.9,30.00,WSW,248,0.0,0.0,58,0.00,,OVC,0.00,VWS V14.00,2013-05-26 04:31:00,
2013-05-26 00:36:00,50.3,36.1,30.00,NNW,338,12.7,12.7,58,0.00,,OVC,0.00,VWS V14.00,2013-05-26 04:36:00,
2013-05-26 00:41:00,50.3,36.1,30.00,WNW,292,4.0,4.0,58,0.00,,OVC,0.00,VWS V14.00,2013-05-26 04:41:00,
2013-05-26 00:46:00,50.3,36.1,29.99,WNW,292,0.0,0.0,58,0.00,,OVC,0.00,VWS V14.00,2013-05-26 04:46:00,
2013-05-26 00:51:00,50.3,36.5,30.00,NNW,338,1.3,4.4,59,0.00,,OVC,0.00,VWS V14.00,2013-05-26 04:51:00,
2013-05-26 00:56:00,50.3,36.5,29.99,NNW,338,0.0,3.3,59,0.00,,OVC,0.00,VWS V14.00,2013-05-26 04:56:00,
2013-05-26 01:01:00,50.1,36.3,29.99,WNW,292,0.0,0.0,59,0.00,,OVC,0.00,VWS V14.00,2013-05-26 05:01:00,
2013-05-26 01:06:00,50.1,36.3,30.00,NNW,338,0.0,0.0,59,0.00,,OVC,0.00,VWS V14.00,2013-05-26 05:06:00,
2013-05-26 01:11:00,50.0,36.2,30.00,WNW,292,2.2,2.2,59,0.00,,OVC,0.00,VWS V14.00,2013-05-26 05:11:00,
2013-05-26 01:16:00,49.8,36.5,30.00,North,0,2.0,2.0,60,0.00,,OVC,0.00,VWS V14.00,2013-05-26 05:16:00,
2013-05-26 01:21:00,49.8,36.5,30.00,NNW,338,0.0,0.0,60,0.00,,OVC,0.00,VWS V14.00,2013-05-26 05:21:00,
2013-05-26 01:26:00,49.8,36.5,30.00,North,0,0.0,0.0,60,0.00,,OVC,0.00,VWS V14.00,2013-05-26 05:26:00,
2013-05-26 01:31:00,50.0,36.7,30.00,NW,315,0.0,0.0,60,0.00,,OVC,0.00,VWS V14.00,2013-05-26 05:31:00,
2013-05-26 01:36:00,49.8,36.9,30.00,NNE,22,0.0,0.0,61,0.00,,OVC,0.00,VWS V14.00,2013-05-26 05:36:00,
2013-05-26 01:41:00,49.8,37.3,30.00,NNE,22,0.0,0.0,62,0.00,,OVC,0.00,VWS V14.00,2013-05-26 05:41:00,
2013-05-26 01:46:00,49.8,37.7,30.00,NNE,22,0.0,0.0,63,0.00,,OVC,0.00,VWS V14.00,2013-05-26 05:46:00,
2013-05-26 01:51:00,49.8,38.1,30.00,North,0,4.6,4.6,64,0.00,,OVC,0.00,VWS V14.00,2013-05-26 05:51:00,
2013-05-26 01:56:00,49.6,37.9,30.00,NW,315,7.3,7.3,64,0.00,,OVC,0.00,VWS V14.00,2013-05-26 05:56:00,
2013-05-26 02:01:00,49.6,37.9,30.00,West,270,0.0,0.0,64,0.00,,OVC,0.00,VWS V14.00,2013-05-26 06:01:00,
2013-05-26 02:06:00,49.2,37.6,30.00,NNE,22,1.5,1.5,64,0.00,,OVC,0.00,VWS V14.00,2013-05-26 06:06:00,
2013-05-26 02:11:00,49.1,37.9,30.00,WNW,292,0.0,0.0,65,0.00,,OVC,0.00,VWS V14.00,2013-05-26 06:11:00,
2013-05-26 02:16:00,48.9,37.7,30.00,West,270,2.9,2.9,65,0.00,,OVC,0.00,VWS V14.00,2013-05-26 06:16:00,
2013-05-26 02:21:00,48.7,37.9,30.00,NNW,338,0.0,0.0,66,0.00,,OVC,0.00,VWS V14.00,2013-05-26 06:21:00,
2013-05-26 02:26:00,48.3,37.5,30.00,ESE,112,0.0,0.0,66,0.00,,OVC,0.00,VWS V14.00,2013-05-26 06:26:00,
2013-05-26 02:31:00,48.2,37.8,30.00,West,270,0.0,0.0,67,0.00,,OVC,0.00,VWS V14.00,2013-05-26 06:31:00,
2013-05-26 02:36:00,48.0,37.6,30.00,West,270,0.0,0.0,67,0.00,,OVC,0.00,VWS V14.00,2013-05-26 06:36:00,
2013-05-26 02:41:00,47.8,37.4,30.00,West,270,0.0,0.0,67,0.00,,OVC,0.00,VWS V14.00,2013-05-26 06:41:00,
2013-05-26 02:46:00,47.4,37.4,30.00,West,270,0.8,0.8,68,0.00,,OVC,0.00,VWS V14.00,2013-05-26 06:46:00,
2013-05-26 02:51:00,47.3,37.3,30.00,WSW,248,0.0,0.0,68,0.00,,OVC,0.00,VWS V14.00,2013-05-26 06:51:00,
2013-05-26 02:56:00,47.3,37.7,30.00,NNW,338,0.6,0.6,69,0.00,,OVC,0.00,VWS V14.00,2013-05-26 06:56:00,
2013-05-26 03:01:00,47.1,37.5,30.00,WNW,292,0.0,0.0,69,0.00,,OVC,0.00,VWS V14.00,2013-05-26 07:01:00,
2013-05-26 03:06:00,47.1,37.5,30.00,WSW,248,1.1,1.1,69,0.00,,OVC,0.00,VWS V14.00,2013-05-26 07:06:00,
2013-05-26 03:11:00,46.9,37.3,30.00,West,270,1.5,1.5,69,0.00,,OVC,0.00,VWS V14.00,2013-05-26 07:11:00,
2013-05-26 03:16:00,46.9,37.3,30.00,SSW,202,0.0,0.0,69,0.00,,OVC,0.00,VWS V14.00,2013-05-26 07:16:00,
2013-05-26 03:21:00,47.1,37.8,30.00,WSW,248,2.6,2.6,70,0.00,,OVC,0.00,VWS V14.00,2013-05-26 07:21:00,
2013-05-26 03:26:00,47.1,37.5,30.00,NW,315,5.5,5.5,69,0.00,,OVC,0.00,VWS V14.00,2013-05-26 07:26:00,
2013-05-26 03:31:00,47.1,37.5,30.00,NW,315,6.2,6.2,69,0.00,,OVC,0.00,VWS V14.00,2013-05-26 07:31:00,
2013-05-26 03:36:00,47.3,37.7,30.00,WNW,292,1.5,1.5,69,0.00,,OVC,0.00,VWS V14.00,2013-05-26 07:36:00,
2013-05-26 03:41:00,47.3,37.7,30.00,NNW,338,6.7,6.7,69,0.00,,OVC,0.00,VWS V14.00,2013-05-26 07:41:00,
2013-05-26 03:46:00,47.1,37.5,30.00,West,270,0.0,0.0,69,0.00,,OVC,0.00,VWS V14.00,2013-05-26 07:46:00,
2013-05-26 03:51:00,46.9,37.6,30.01,WSW,248,0.0,0.0,70,0.00,,OVC,0.00,VWS V14.00,2013-05-26 07:51:00,
2013-05-26 03:56:00,46.9,37.6,30.01,West,270,0.0,0.0,70,0.00,,OVC,0.00,VWS V14.00,2013-05-26 07:56:00,
2013-05-26 04:01:00,46.9,37.6,30.01,North,0,0.0,0.0,70,0.00,,OVC,0.00,VWS V14.00,2013-05-26 08:01:00,
2013-05-26 04:06:00,46.7,37.8,30.01,WSW,248,4.2,4.2,71,0.00,,OVC,0.00,VWS V14.00,2013-05-26 08:06:00,
2013-05-26 04:11:00,46.5,37.6,30.02,West,270,0.0,0.0,71,0.00,,OVC,0.00,VWS V14.00,2013-05-26 08:11:00,
2013-05-26 04:16:00,46.5,37.6,30.01,NW,315,0.0,0.0,71,0.00,,OVC,0.00,VWS V14.00,2013-05-26 08:16:00,
2013-05-26 04:21:00,46.7,37.8,30.02,WNW,292,0.0,0.0,71,0.00,,OVC,0.00,VWS V14.00,2013-05-26 08:21:00,
2013-05-26 04:26:00,46.7,37.8,30.02,West,270,3.1,3.1,71,0.00,,OVC,0.00,VWS V14.00,2013-05-26 08:26:00,
2013-05-26 04:31:00,46.9,38.0,30.02,West,270,2.2,2.2,71,0.00,,OVC,0.00,VWS V14.00,2013-05-26 08:31:00,
2013-05-26 04:36:00,46.9,37.6,30.02,NW,315,2.2,2.2,70,0.00,,OVC,0.00,VWS V14.00,2013-05-26 08:36:00,
2013-05-26 04:40:00,47.1,37.8,30.02,West,270,0.0,0.0,70,0.00,,OVC,0.00,VWS V14.00,2013-05-26 08:40:00,
2013-05-26 04:45:00,46.9,38.0,30.02,WSW,248,0.0,0.0,71,0.00,,OVC,0.00,VWS V14.00,2013-05-26 08:45:00,
2013-05-26 04:51:00,46.7,37.8,30.03,West,270,0.0,0.0,71,0.00,,OVC,0.00,VWS V14.00,2013-05-26 08:51:00,
2013-05-26 04:56:00,46.5,37.6,30.02,West,270,0.0,0.0,71,0.00,,OVC,0.00,VWS V14.00,2013-05-26 08:56:00,
2013-05-26 05:01:00,46.5,37.6,30.02,WSW,248,3.1,3.1,71,0.00,,OVC,0.00,VWS V14.00,2013-05-26 09:01:00,
2013-05-26 05:06:00,46.2,37.3,30.03,NNW,338,0.0,0.0,71,0.00,,OVC,0.00,VWS V14.00,2013-05-26 09:06:00,
2013-05-26 05:11:00,46.2,37.3,30.03,West,270,0.0,0.0,71,0.00,,OVC,0.00,VWS V14.00,2013-05-26 09:11:00,
2013-05-26 05:16:00,46.0,37.1,30.03,WSW,248,0.0,0.0,71,0.00,,OVC,0.00,VWS V14.00,2013-05-26 09:16:00,
2013-05-26 05:20:00,46.0,37.5,30.03,NW,315,0.0,0.0,72,0.00,,OVC,0.00,VWS V14.00,2013-05-26 09:20:00,
2013-05-26 05:25:00,46.0,37.5,30.03,West,270,4.6,4.6,72,0.00,,OVC,0.00,VWS V14.00,2013-05-26 09:25:00,
2013-05-26 05:30:00,45.8,37.3,30.03,NW,315,0.0,0.0,72,0.00,,OVC,0.00,VWS V14.00,2013-05-26 09:30:00,
2013-05-26 05:35:00,46.0,37.5,30.03,West,270,0.0,0.0,72,0.00,,OVC,0.00,VWS V14.00,2013-05-26 09:35:00,
2013-05-26 05:40:00,46.0,37.8,30.03,West,270,2.6,2.6,73,0.00,,OVC,0.00,VWS V14.00,2013-05-26 09:40:00,
2013-05-26 05:45:00,46.0,37.8,30.03,WSW,248,0.6,0.6,73,0.00,,OVC,0.00,VWS V14.00,2013-05-26 09:45:00,
2013-05-26 05:50:00,46.0,37.8,30.03,SW,225,0.0,0.0,73,0.00,,OVC,0.00,VWS V14.00,2013-05-26 09:50:00,
2013-05-26 05:55:00,46.2,38.0,30.04,West,270,0.0,0.0,73,0.00,,OVC,0.00,VWS V14.00,2013-05-26 09:55:00,
2013-05-26 06:00:00,46.2,38.0,30.04,NW,315,0.0,0.0,73,0.00,,OVC,0.00,VWS V14.00,2013-05-26 10:00:00,
2013-05-26 06:05:00,46.2,38.0,30.04,West,270,0.0,0.0,73,0.00,,OVC,0.00,VWS V14.00,2013-05-26 10:05:00,
2013-05-26 06:10:00,46.2,38.0,30.04,WSW,248,1.5,1.5,73,0.00,,OVC,0.00,VWS V14.00,2013-05-26 10:10:00,
2013-05-26 06:15:00,46.5,38.3,30.05,West,270,0.0,0.0,73,0.00,,OVC,0.00,VWS V14.00,2013-05-26 10:15:00,
2013-05-26 06:20:00,46.9,38.4,30.05,West,270,3.8,3.8,72,0.00,,OVC,0.00,VWS V14.00,2013-05-26 10:20:00,
2013-05-26 06:25:00,47.1,38.5,30.05,WNW,292,1.5,1.5,72,0.00,,OVC,0.00,VWS V14.00,2013-05-26 10:25:00,
2013-05-26 06:30:00,47.4,38.8,30.05,WNW,292,4.0,4.0,72,0.00,,OVC,0.00,VWS V14.00,2013-05-26 10:30:00,
2013-05-26 06:35:00,47.6,39.0,30.05,West,270,1.3,1.3,72,0.00,,OVC,0.00,VWS V14.00,2013-05-26 10:35:00,
2013-05-26 06:40:00,48.0,39.1,30.05,West,270,0.0,0.0,71,0.00,,OVC,0.00,VWS V14.00,2013-05-26 10:40:00,
2013-05-26 06:45:00,48.5,39.2,30.05,WSW,248,1.5,1.5,70,0.00,,OVC,0.00,VWS V14.00,2013-05-26 10:45:00,
2013-05-26 06:50:00,49.6,39.9,30.05,West,270,0.0,0.0,69,0.00,,OVC,0.00,VWS V14.00,2013-05-26 10:50:00,
2013-05-26 06:55:00,50.1,40.0,30.05,West,270,2.6,2.6,68,0.00,,OVC,0.00,VWS V14.00,2013-05-26 10:55:00,
2013-05-26 07:00:00,50.1,40.0,30.05,West,270,0.0,0.0,68,0.00,,OVC,0.00,VWS V14.00,2013-05-26 11:00:00,
2013-05-26 07:05:00,50.1,40.0,30.05,NW,315,0.8,0.8,68,0.00,,OVC,0.00,VWS V14.00,2013-05-26 11:05:00,
2013-05-26 07:10:00,51.0,40.4,30.05,WSW,248,0.0,0.0,67,0.00,,OVC,0.00,VWS V14.00,2013-05-26 11:10:00,
2013-05-26 07:15:00,51.4,40.4,30.05,WSW,248,8.7,8.7,66,0.00,,OVC,0.00,VWS V14.00,2013-05-26 11:15:00,
2013-05-26 07:20:00,51.8,40.4,30.05,West,270,9.1,9.1,65,0.00,,OVC,0.00,VWS V14.00,2013-05-26 11:20:00,
2013-05-26 07:25:00,58.2,44.4,30.05,West,270,6.4,6.4,60,0.00,,OVC,0.00,VWS V14.00,2013-05-26 11:25:00,
2013-05-26 07:30:00,69.9,48.8,30.05,WSW,248,0.0,0.0,47,0.00,,OVC,0.00,VWS V14.00,2013-05-26 11:30:00,
2013-05-26 07:35:00,77.5,49.2,30.05,WNW,292,0.4,0.4,37,0.00,,OVC,0.00,VWS V14.00,2013-05-26 11:35:00,
2013-05-26 07:40:00,80.7,49.8,30.05,NW,315,0.4,0.4,34,0.00,,OVC,0.00,VWS V14.00,2013-05-26 11:40:00,
2013-05-26 07:45:00,82.5,48.8,30.05,NW,315,2.2,2.2,31,0.00,,OVC,0.00,VWS V14.00,2013-05-26 11:45:00,
2013-05-26 07:50:00,78.9,48.2,30.05,WNW,292,3.5,3.5,34,0.00,,OVC,0.00,VWS V14.00,2013-05-26 11:50:00,
2013-05-26 07:55:00,77.5,47.7,30.05,SW,225,4.0,4.0,35,0.00,,OVC,0.00,VWS V14.00,2013-05-26 11:55:00,
2013-05-26 08:00:00,77.3,47.5,30.05,WNW,292,8.7,8.7,35,0.00,,OVC,0.00,VWS V14.00,2013-05-26 12:00:00,
2013-05-26 08:05:00,76.2,45.8,30.05,WNW,292,2.0,2.0,34,0.00,,OVC,0.00,VWS V14.00,2013-05-26 12:05:00,
2013-05-26 08:10:00,74.4,45.7,30.05,WNW,292,2.9,2.9,36,0.00,,OVC,0.00,VWS V14.00,2013-05-26 12:10:00,
2013-05-26 08:15:00,74.3,44.9,30.06,WNW,292,7.1,7.1,35,0.00,,OVC,0.00,VWS V14.00,2013-05-26 12:15:00,
2013-05-26 08:20:00,74.4,46.5,30.05,North,0,1.5,1.5,37,0.00,,OVC,0.00,VWS V14.00,2013-05-26 12:20:00,
2013-05-26 08:25:00,74.6,45.9,30.05,West,270,4.4,4.4,36,0.00,,OVC,0.00,VWS V14.00,2013-05-26 12:25:00,
2013-05-26 08:30:00,75.0,46.3,30.05,WSW,248,2.0,2.0,36,0.00,,OVC,0.00,VWS V14.00,2013-05-26 12:30:00,
2013-05-26 08:35:00,75.0,44.8,30.05,West,270,7.6,7.6,34,0.00,,OVC,0.00,VWS V14.00,2013-05-26 12:35:00,
2013-05-26 08:40:00,73.5,44.2,30.05,SW,225,0.0,0.0,35,0.00,,OVC,0.00,VWS V14.00,2013-05-26 12:40:00,
2013-05-26 08:45:00,74.1,45.5,30.05,West,270,2.6,2.6,36,0.00,,OVC,0.00,VWS V14.00,2013-05-26 12:45:00,
2013-05-26 08:50:00,74.3,46.4,30.05,WSW,248,2.6,2.6,37,0.00,,OVC,0.00,VWS V14.00,2013-05-26 12:50:00,
2013-05-26 08:55:00,74.4,45.0,30.05,North,0,0.0,0.0,35,0.00,,OVC,0.00,VWS V14.00,2013-05-26 12:55:00,
2013-05-26 09:00:00,74.3,44.9,30.05,ENE,68,1.7,1.7,35,0.00,,OVC,0.00,VWS V14.00,2013-05-26 13:00:00,
2013-05-26 09:05:00,74.1,44.7,30.05,WNW,292,6.7,6.7,35,0.00,,OVC,0.00,VWS V14.00,2013-05-26 13:05:00,
2013-05-26 09:10:00,74.4,44.2,30.05,WSW,248,0.0,0.0,34,0.00,,OVC,0.00,VWS V14.00,2013-05-26 13:10:00,
2013-05-26 09:15:00,74.1,44.7,30.05,NW,315,7.6,7.6,35,0.00,,OVC,0.00,VWS V14.00,2013-05-26 13:15:00,
2013-05-26 09:20:00,73.9,44.5,30.05,West,270,7.3,7.3,35,0.00,,OVC,0.00,VWS V14.00,2013-05-26 13:20:00,
2013-05-26 09:25:00,73.5,44.2,30.05,West,270,2.4,2.4,35,0.00,,OVC,0.00,VWS V14.00,2013-05-26 13:25:00,
2013-05-26 09:30:00,73.5,43.4,30.05,West,270,7.3,7.3,34,0.00,,OVC,0.00,VWS V14.00,2013-05-26 13:30:00,
2013-05-26 09:35:00,73.9,45.3,30.05,NNW,338,5.1,5.1,36,0.00,,OVC,0.00,VWS V14.00,2013-05-26 13:35:00,
2013-05-26 09:40:00,73.5,43.4,30.05,NW,315,0.0,0.0,34,0.00,,OVC,0.00,VWS V14.00,2013-05-26 13:40:00,
2013-05-26 09:45:00,73.0,43.8,30.04,West,270,8.7,8.7,35,0.00,,OVC,0.00,VWS V14.00,2013-05-26 13:45:00,
2013-05-26 09:50:00,73.0,43.8,30.05,WNW,292,5.8,5.8,35,0.00,,OVC,0.00,VWS V14.00,2013-05-26 13:50:00,
2013-05-26 09:55:00,73.7,43.6,30.05,NNW,338,4.9,4.9,34,0.00,,OVC,0.00,VWS V14.00,2013-05-26 13:55:00,
2013-05-26 10:00:00,73.9,44.5,30.05,NE,45,6.2,6.2,35,0.00,,OVC,0.00,VWS V14.00,2013-05-26 14:00:00,
2013-05-26 10:05:00,73.5,43.4,30.05,NNW,338,5.8,5.8,34,0.00,,OVC,0.00,VWS V14.00,2013-05-26 14:05:00,
2013-05-26 10:10:00,72.6,41.9,30.05,West,270,3.8,3.8,33,0.00,,OVC,0.00,VWS V14.00,2013-05-26 14:10:00,
2013-05-26 10:15:00,72.5,42.6,30.05,West,270,8.0,8.0,34,0.00,,OVC,0.00,VWS V14.00,2013-05-26 14:15:00,
2013-05-26 10:20:00,73.0,43.0,30.05,WNW,292,3.1,3.1,34,0.00,,OVC,0.00,VWS V14.00,2013-05-26 14:20:00,
2013-05-26 10:25:00,72.6,43.4,30.05,WSW,248,7.3,7.3,35,0.00,,OVC,0.00,VWS V14.00,2013-05-26 14:25:00,
2013-05-26 10:30:00,72.8,42.8,30.05,NNW,338,4.9,4.9,34,0.00,,OVC,0.00,VWS V14.00,2013-05-26 14:30:00,
2013-05-26 10:35:00,72.1,41.4,30.05,North,0,18.1,18.1,33,0.00,,OVC,0.00,VWS V14.00,2013-05-26 14:35:00,
2013-05-26 10:40:00,73.5,41.9,30.05,NE,45,4.6,4.6,32,0.00,,OVC,0.00,VWS V14.00,2013-05-26 14:40:00,
2013-05-26 10:45:00,70.7,39.4,30.05,NE,45,2.4,2.4,32,0.00,,OVC,0.00,VWS V14.00,2013-05-26 14:45:00,
2013-05-26 10:50:00,69.4,41.3,30.05,NNE,22,10.7,10.7,36,0.00,,OVC,0.00,VWS V14.00,2013-05-26 14:50:00,
2013-05-26 10:55:00,69.4,41.3,30.05,WNW,292,3.5,3.5,36,0.00,,OVC,0.00,VWS V14.00,2013-05-26 14:55:00,
2013-05-26 11:00:00,69.0,40.2,30.05,NNE,22,1.7,1.7,35,0.00,,OVC,0.00,VWS V14.00,2013-05-26 15:00:00,
2013-05-26 11:05:00,68.9,41.6,30.05,WNW,292,4.9,4.9,37,0.00,,OVC,0.00,VWS V14.00,2013-05-26 15:05:00,
2013-05-26 11:10:00,69.6,42.2,30.05,NW,315,4.2,4.2,37,0.00,,OVC,0.00,VWS V14.00,2013-05-26 15:10:00,
2013-05-26 11:15:00,69.6,42.2,30.05,WNW,292,7.3,7.3,37,0.00,,OVC,0.00,VWS V14.00,2013-05-26 15:15:00,
2013-05-26 11:20:00,69.6,41.5,30.05,NW,315,4.6,4.6,36,0.00,,OVC,0.00,VWS V14.00,2013-05-26 15:20:00,
2013-05-26 11:25:00,70.1,44.0,30.05,NW,315,8.0,8.0,39,0.00,,OVC,0.00,VWS V14.00,2013-05-26 15:25:00,
2013-05-26 11:30:00,69.9,41.8,30.05,North,0,0.0,0.0,36,0.00,,OVC,0.00,VWS V14.00,2013-05-26 15:30:00,
2013-05-26 11:35:00,70.3,42.8,30.06,West,270,3.3,3.3,37,0.00,,OVC,0.00,VWS V14.00,2013-05-26 15:35:00,
2013-05-26 11:40:00,69.9,41.0,30.06,WNW,292,5.5,5.5,35,0.00,,OVC,0.00,VWS V14.00,2013-05-26 15:40:00,
2013-05-26 11:45:00,69.8,41.7,30.06,WSW,248,0.0,0.0,36,0.00,,OVC,0.00,VWS V14.00,2013-05-26 15:45:00,
2013-05-26 11:50:00,69.6,42.2,30.05,NNE,22,2.2,2.2,37,0.00,,OVC,0.00,VWS V14.00,2013-05-26 15:50:00,
2013-05-26 11:55:00,69.9,42.5,30.06,South,180,2.0,2.0,37,0.00,,OVC,0.00,VWS V14.00,2013-05-26 15:55:00,
2013-05-26 12:00:00,70.3,43.5,30.05,SW,225,0.8,0.8,38,0.00,,OVC,0.00,VWS V14.00,2013-05-26 16:00:00,
2013-05-26 12:05:00,70.7,43.9,30.05,NW,315,0.0,0.0,38,0.00,,OVC,0.00,VWS V14.00,2013-05-26 16:05:00,
2013-05-26 12:10:00,70.7,42.5,30.05,WSW,248,8.2,8.2,36,0.00,,OVC,0.00,VWS V14.00,2013-05-26 16:10:00,
2013-05-26 12:15:00,70.5,43.7,30.05,West,270,3.1,3.1,38,0.00,,OVC,0.00,VWS V14.00,2013-05-26 16:15:00,
2013-05-26 12:20:00,69.9,41.8,30.05,SSW,202,0.0,0.0,36,0.00,,OVC,0.00,VWS V14.00,2013-05-26 16:20:00,
2013-05-26 12:25:00,70.8,43.3,30.05,West,270,4.2,4.2,37,0.00,,OVC,0.00,VWS V14.00,2013-05-26 16:25:00,
2013-05-26 12:30:00,70.5,41.6,30.05,SW,225,6.0,6.0,35,0.00,,OVC,0.00,VWS V14.00,2013-05-26 16:30:00,
2013-05-26 12:35:00,70.3,42.8,30.05,West,270,2.2,2.2,37,0.00,,OVC,0.00,VWS V14.00,2013-05-26 16:35:00,
2013-05-26 12:40:00,70.5,42.3,30.05,NNW,338,7.1,7.1,36,0.00,,OVC,0.00,VWS V14.00,2013-05-26 16:40:00,
2013-05-26 12:45:00,70.5,41.6,30.05,WNW,292,2.0,2.0,35,0.00,,OVC,0.00,VWS V14.00,2013-05-26 16:45:00,
2013-05-26 12:50:00,71.2,44.3,30.05,WSW,248,0.4,0.4,38,0.00,,OVC,0.00,VWS V14.00,2013-05-26 16:50:00,
2013-05-26 12:55:00,71.9,44.9,30.05,WNW,292,7.3,7.3,38,0.00,,OVC,0.00,VWS V14.00,2013-05-26 16:55:00,
2013-05-26 13:00:00,72.3,43.9,30.04,NNW,338,4.2,4.2,36,0.00,,OVC,0.00,VWS V14.00,2013-05-26 17:00:00,
2013-05-26 13:05:00,72.3,43.9,30.04,NW,315,0.8,0.8,36,0.00,,OVC,0.00,VWS V14.00,2013-05-26 17:05:00,
2013-05-26 13:10:00,72.1,44.4,30.05,WSW,248,8.5,8.5,37,0.00,,OVC,0.00,VWS V14.00,2013-05-26 17:10:00,
2013-05-26 13:15:00,72.5,44.8,30.04,WSW,248,2.2,2.2,37,0.00,,OVC,0.00,VWS V14.00,2013-05-26 17:15:00,
2013-05-26 13:20:00,71.9,42.8,30.04,East,90,1.1,1.1,35,0.00,,OVC,0.00,VWS V14.00,2013-05-26 17:20:00,
2013-05-26 13:25:00,71.2,42.2,30.04,WNW,292,4.6,4.6,35,0.00,,OVC,0.00,VWS V14.00,2013-05-26 17:25:00,
2013-05-26 13:30:00,70.8,42.5,30.04,West,270,2.4,2.4,36,0.00,,OVC,0.00,VWS V14.00,2013-05-26 17:30:00,
2013-05-26 13:35:00,71.4,43.1,30.03,SW,225,5.3,5.3,36,0.00,,OVC,0.00,VWS V14.00,2013-05-26 17:35:00,
2013-05-26 13:40:00,71.4,42.3,30.04,NW,315,0.6,0.6,35,0.00,,OVC,0.00,VWS V14.00,2013-05-26 17:40:00,
2013-05-26 13:45:00,71.2,41.4,30.03,NNW,338,1.1,1.1,34,0.00,,OVC,0.00,VWS V14.00,2013-05-26 17:45:00,
2013-05-26 13:50:00,70.3,41.4,30.04,NE,45,0.0,0.0,35,0.00,,OVC,0.00,VWS V14.00,2013-05-26 17:50:00,
2013-05-26 13:55:00,69.9,41.8,30.04,West,270,6.2,6.2,36,0.00,,OVC,0.00,VWS V14.00,2013-05-26 17:55:00,
2013-05-26 14:00:00,70.1,41.9,30.04,SW,225,6.7,6.7,36,0.00,,OVC,0.00,VWS V14.00,2013-05-26 18:00:00,
2013-05-26 14:05:00,69.8,42.4,30.04,NNE,22,13.4,13.4,37,0.00,,OVC,0.00,VWS V14.00,2013-05-26 18:05:00,
2013-05-26 14:10:00,69.6,42.2,30.03,NW,315,6.9,6.9,37,0.00,,OVC,0.00,VWS V14.00,2013-05-26 18:10:00,
2013-05-26 14:15:00,69.6,42.2,30.04,West,270,0.0,0.0,37,0.00,,OVC,0.00,VWS V14.00,2013-05-26 18:15:00,
2013-05-26 14:20:00,69.6,42.2,30.03,West,270,0.8,0.8,37,0.00,,OVC,0.00,VWS V14.00,2013-05-26 18:20:00,
2013-05-26 14:25:00,69.6,42.9,30.03,NW,315,2.4,2.4,38,0.00,,OVC,0.00,VWS V14.00,2013-05-26 18:25:00,
2013-05-26 14:30:00,69.9,43.8,30.03,NW,315,6.4,6.4,39,0.00,,OVC,0.00,VWS V14.00,2013-05-26 18:30:00,
2013-05-26 14:35:00,69.9,42.5,30.03,WNW,292,0.0,0.0,37,0.00,,OVC,0.00,VWS V14.00,2013-05-26 18:35:00,
2013-05-26 14:40:00,70.3,42.8,30.03,North,0,4.9,4.9,37,0.00,,OVC,0.00,VWS V14.00,2013-05-26 18:40:00,
2013-05-26 14:45:00,69.9,41.8,30.03,North,0,2.9,2.9,36,0.00,,OVC,0.00,VWS V14.00,2013-05-26 18:45:00,
2013-05-26 14:50:00,69.9,42.5,30.03,NNW,338,0.0,0.0,37,0.00,,OVC,0.00,VWS V14.00,2013-05-26 18:50:00,
2013-05-26 14:55:00,69.9,41.8,30.03,West,270,3.5,3.5,36,0.00,,OVC,0.00,VWS V14.00,2013-05-26 18:55:00,
2013-05-26 15:00:00,69.6,41.5,30.03,WNW,292,6.4,6.4,36,0.00,,OVC,0.00,VWS V14.00,2013-05-26 19:00:00,
2013-05-26 15:05:00,69.6,41.5,30.03,WNW,292,0.2,0.2,36,0.00,,OVC,0.00,VWS V14.00,2013-05-26 19:05:00,
2013-05-26 15:10:00,69.4,40.6,30.03,WNW,292,3.1,3.1,35,0.00,,OVC,0.00,VWS V14.00,2013-05-26 19:10:00,
2013-05-26 15:15:00,69.0,40.2,30.03,West,270,4.6,4.6,35,0.00,,OVC,0.00,VWS V14.00,2013-05-26 19:15:00,
2013-05-26 15:20:00,68.7,41.4,30.03,WSW,248,3.3,3.3,37,0.00,,OVC,0.00,VWS V14.00,2013-05-26 19:20:00,
2013-05-26 15:25:00,68.9,42.3,30.03,WSW,248,4.4,4.4,38,0.00,,OVC,0.00,VWS V14.00,2013-05-26 19:25:00,
2013-05-26 15:30:00,69.0,41.7,30.03,West,270,0.0,0.0,37,0.00,,OVC,0.00,VWS V14.00,2013-05-26 19:30:00,
2013-05-26 15:35:00,69.0,42.4,30.03,WNW,292,0.6,0.6,38,0.00,,OVC,0.00,VWS V14.00,2013-05-26 19:35:00,
2013-05-26 15:40:00,69.4,42.0,30.03,NNW,338,14.3,14.3,37,0.00,,OVC,0.00,VWS V14.00,2013-05-26 19:40:00,
2013-05-26 15:45:00,69.4,39.8,30.03,NE,45,1.5,1.5,34,0.00,,OVC,0.00,VWS V14.00,2013-05-26 19:45:00,
2013-05-26 15:50:00,69.4,40.6,30.03,WNW,292,6.2,6.2,35,0.00,,OVC,0.00,VWS V14.00,2013-05-26 19:50:00,
2013-05-26 15:55:00,69.2,41.1,30.03,NW,315,9.1,9.1,36,0.00,,OVC,0.00,VWS V14.00,2013-05-26 19:55:00,
2013-05-26 16:00:00,69.2,41.1,30.03,WSW,248,0.0,0.0,36,0.00,,OVC,0.00,VWS V14.00,2013-05-26 20:00:00,
2013-05-26 16:05:00,69.2,40.4,30.03,West,270,1.7,1.7,35,0.00,,OVC,0.00,VWS V14.00,2013-05-26 20:05:00,
2013-05-26 16:10:00,68.9,40.2,30.03,NE,45,5.5,5.5,35,0.00,,OVC,0.00,VWS V14.00,2013-05-26 20:10:00,
2013-05-26 16:15:00,68.7,39.2,30.03,WSW,248,0.0,0.0,34,0.00,,OVC,0.00,VWS V14.00,2013-05-26 20:15:00,
2013-05-26 16:20:00,68.9,39.4,30.03,West,270,0.0,0.0,34,0.00,,OVC,0.00,VWS V14.00,2013-05-26 20:20:00,
2013-05-26 16:25:00,68.7,39.2,30.03,West,270,1.1,1.1,34,0.00,,OVC,0.00,VWS V14.00,2013-05-26 20:25:00,
2013-05-26 16:30:00,68.7,39.2,30.04,North,0,13.6,13.6,34,0.00,,OVC,0.00,VWS V14.00,2013-05-26 20:30:00,
2013-05-26 16:35:00,68.5,39.0,30.04,NNW,338,7.8,7.8,34,0.00,,OVC,0.00,VWS V14.00,2013-05-26 20:35:00,
2013-05-26 16:40:00,68.5,38.3,30.04,WNW,292,3.1,3.1,33,0.00,,OVC,0.00,VWS V14.00,2013-05-26 20:40:00,
2013-05-26 16:45:00,68.1,37.9,30.05,WSW,248,6.0,6.0,33,0.00,,OVC,0.00,VWS V14.00,2013-05-26 20:45:00,
2013-05-26 16:50:00,68.1,38.7,30.04,NNW,338,3.3,3.3,34,0.00,,OVC,0.00,VWS V14.00,2013-05-26 20:50:00,
2013-05-26 16:55:00,68.1,37.9,30.04,NNW,338,7.3,7.3,33,0.00,,OVC,0.00,VWS V14.00,2013-05-26 20:55:00,
2013-05-26 17:00:00,68.0,37.8,30.04,West,270,4.9,4.9,33,0.00,,OVC,0.00,VWS V14.00,2013-05-26 21:00:00,
2013-05-26 17:05:00,68.1,38.7,30.05,NW,315,6.7,8.2,34,0.00,,OVC,0.00,VWS V14.00,2013-05-26 21:05:00,
2013-05-26 17:10:00,67.8,38.4,30.05,West,270,10.7,10.7,34,0.00,,OVC,0.00,VWS V14.00,2013-05-26 21:10:00,
2013-05-26 17:15:00,68.1,38.7,30.05,SW,225,0.4,2.0,34,0.00,,OVC,0.00,VWS V14.00,2013-05-26 21:15:00,
2013-05-26 17:20:00,68.0,38.6,30.05,NW,315,4.2,4.2,34,0.00,,OVC,0.00,VWS V14.00,2013-05-26 21:20:00,
2013-05-26 17:25:00,67.8,37.7,30.05,NW,315,8.7,8.7,33,0.00,,OVC,0.00,VWS V14.00,2013-05-26 21:25:00,
2013-05-26 17:30:00,67.8,37.7,30.05,West,270,1.3,1.3,33,0.00,,OVC,0.00,VWS V14.00,2013-05-26 21:30:00,
2013-05-26 17:35:00,67.8,37.7,30.05,NNW,338,0.0,0.0,33,0.00,,OVC,0.00,VWS V14.00,2013-05-26 21:35:00,
2013-05-26 17:40:00,67.8,37.7,30.05,NNW,338,4.6,4.6,33,0.00,,OVC,0.00,VWS V14.00,2013-05-26 21:40:00,
2013-05-26 17:45:00,67.8,37.7,30.05,North,0,6.0,6.0,33,0.00,,OVC,0.00,VWS V14.00,2013-05-26 21:45:00,
2013-05-26 17:50:00,67.8,38.4,30.05,West,270,7.8,7.8,34,0.00,,OVC,0.00,VWS V14.00,2013-05-26 21:50:00,
2013-05-26 17:55:00,67.6,37.5,30.05,NNE,22,3.1,3.1,33,0.00,,OVC,0.00,VWS V14.00,2013-05-26 21:55:00,
2013-05-26 18:00:00,67.6,38.3,30.05,WNW,292,5.8,5.8,34,0.00,,OVC,0.00,VWS V14.00,2013-05-26 22:00:00,
2013-05-26 18:05:00,67.2,37.9,30.06,West,270,3.5,3.5,34,0.00,,OVC,0.00,VWS V14.00,2013-05-26 22:05:00,
2013-05-26 18:10:00,67.2,37.9,30.06,NE,45,3.3,3.3,34,0.00,,OVC,0.00,VWS V14.00,2013-05-26 22:10:00,
2013-05-26 18:15:00,67.4,38.1,30.06,NNE,22,3.8,3.8,34,0.00,,OVC,0.00,VWS V14.00,2013-05-26 22:15:00,
2013-05-26 18:20:00,67.2,37.9,30.06,WSW,248,2.4,2.4,34,0.00,,OVC,0.00,VWS V14.00,2013-05-26 22:20:00,
2013-05-26 18:25:00,67.2,37.2,30.07,WNW,292,2.9,2.9,33,0.00,,OVC,0.00,VWS V14.00,2013-05-26 22:25:00,
2013-05-26 18:30:00,67.1,37.8,30.07,NNE,22,1.7,1.7,34,0.00,,OVC,0.00,VWS V14.00,2013-05-26 22:30:00,
2013-05-26 18:35:00,66.9,36.9,30.07,NNE,22,5.8,5.8,33,0.00,,OVC,0.00,VWS V14.00,2013-05-26 22:35:00,
2013-05-26 18:40:00,66.7,36.7,30.07,WNW,292,2.6,2.6,33,0.00,,OVC,0.00,VWS V14.00,2013-05-26 22:40:00,
2013-05-26 18:45:00,66.5,36.5,30.07,North,0,4.9,4.9,33,0.00,,OVC,0.00,VWS V14.00,2013-05-26 22:45:00,
2013-05-26 18:50:00,66.3,37.1,30.08,North,0,3.8,3.8,34,0.00,,OVC,0.00,VWS V14.00,2013-05-26 22:50:00,
2013-05-26 18:55:00,66.3,37.8,30.08,WNW,292,1.5,1.5,35,0.00,,OVC,0.00,VWS V14.00,2013-05-26 22:55:00,
2013-05-26 19:00:00,66.0,37.6,30.08,NW,315,8.9,8.9,35,0.00,,OVC,0.00,VWS V14.00,2013-05-26 23:00:00,
2013-05-26 19:05:00,66.0,37.6,30.08,NNE,22,0.0,0.0,35,0.00,,OVC,0.00,VWS V14.00,2013-05-26 23:05:00,
2013-05-26 19:10:00,65.8,36.7,30.09,North,0,0.0,0.0,34,0.00,,OVC,0.00,VWS V14.00,2013-05-26 23:10:00,
2013-05-26 19:15:00,65.6,36.5,30.09,West,270,0.0,0.0,34,0.00,,OVC,0.00,VWS V14.00,2013-05-26 23:15:00,
2013-05-26 19:20:00,65.4,36.3,30.09,West,270,0.0,0.0,34,0.00,,OVC,0.00,VWS V14.00,2013-05-26 23:20:00,
2013-05-26 19:25:00,65.1,36.8,30.09,NNE,22,0.0,0.0,35,0.00,,OVC,0.00,VWS V14.00,2013-05-26 23:25:00,
2013-05-26 19:30:00,65.1,36.8,30.10,North,0,2.9,2.9,35,0.00,,OVC,0.00,VWS V14.00,2013-05-26 23:30:00,
2013-05-26 19:35:00,64.7,36.4,30.10,NNW,338,0.0,0.0,35,0.00,,OVC,0.00,VWS V14.00,2013-05-26 23:35:00,
2013-05-26 19:40:00,64.5,36.3,30.10,West,270,0.0,0.0,35,0.00,,OVC,0.00,VWS V14.00,2013-05-26 23:40:00,
2013-05-26 19:45:00,64.2,36.7,30.11,North,0,4.2,4.2,36,0.00,,OVC,0.00,VWS V14.00,2013-05-26 23:45:00,
2013-05-26 19:50:00,64.0,36.5,30.11,NNE,22,2.0,2.0,36,0.00,,OVC,0.00,VWS V14.00,2013-05-26 23:50:00,
2013-05-26 19:55:00,63.6,36.2,30.11,NNW,338,0.0,0.0,36,0.00,,OVC,0.00,VWS V14.00,2013-05-26 23:55:00,
2013-05-26 20:00:00,63.3,35.9,30.11,NNW,338,0.8,0.8,36,0.00,,OVC,0.00,VWS V14.00,2013-05-27 00:00:00,
2013-05-26 20:05:00,63.1,36.4,30.11,WNW,292,0.0,0.0,37,0.00,,OVC,0.00,VWS V14.00,2013-05-27 00:05:00,
2013-05-26 20:10:00,62.7,36.1,30.11,NNW,338,0.0,0.0,37,0.00,,OVC,0.00,VWS V14.00,2013-05-27 00:10:00,
2013-05-26 20:15:00,62.4,35.8,30.11,NE,45,0.4,0.4,37,0.00,,OVC,0.00,VWS V14.00,2013-05-27 00:15:00,
2013-05-26 20:20:00,62.2,36.3,30.11,WNW,292,0.0,0.0,38,0.00,,OVC,0.00,VWS V14.00,2013-05-27 00:20:00,
2013-05-26 20:25:00,61.8,36.0,30.12,NNE,22,3.1,3.1,38,0.00,,OVC,0.00,VWS V14.00,2013-05-27 00:25:00,
2013-05-26 20:30:00,61.5,36.3,30.12,NNW,338,0.0,0.0,39,0.00,,OVC,0.00,VWS V14.00,2013-05-27 00:30:00,
2013-05-26 20:35:00,61.1,36.0,30.12,NW,315,0.0,0.0,39,0.00,,OVC,0.00,VWS V14.00,2013-05-27 00:35:00,
2013-05-26 20:40:00,60.6,35.5,30.13,NW,315,0.0,0.0,39,0.00,,OVC,0.00,VWS V14.00,2013-05-27 00:40:00,
2013-05-26 20:45:00,60.4,36.0,30.13,NW,315,0.0,0.0,40,0.00,,OVC,0.00,VWS V14.00,2013-05-27 00:45:00,
2013-05-26 20:50:00,60.0,35.6,30.13,NW,315,0.0,0.0,40,0.00,,OVC,0.00,VWS V14.00,2013-05-27 00:50:00,
2013-05-26 20:55:00,59.5,35.8,30.13,NNW,338,0.0,0.0,41,0.00,,OVC,0.00,VWS V14.00,2013-05-27 00:55:00,
2013-05-26 21:00:00,59.1,35.4,30.14,NNW,338,0.0,0.0,41,0.00,,OVC,0.00,VWS V14.00,2013-05-27 01:00:00,
2013-05-26 21:05:00,58.8,35.8,30.14,NNW,338,0.0,0.0,42,0.00,,OVC,0.00,VWS V14.00,2013-05-27 01:05:00,
2013-05-26 21:10:00,58.6,35.6,30.14,NNW,338,0.0,0.0,42,0.00,,OVC,0.00,VWS V14.00,2013-05-27 01:10:00,
2013-05-26 21:15:00,58.2,35.8,30.15,NNW,338,0.0,0.0,43,0.00,,OVC,0.00,VWS V14.00,2013-05-27 01:15:00,
2013-05-26 21:20:00,57.9,35.6,30.15,NW,315,0.0,0.0,43,0.00,,OVC,0.00,VWS V14.00,2013-05-27 01:20:00,
2013-05-26 21:25:00,57.7,36.0,30.15,NW,315,0.0,0.0,44,0.00,,OVC,0.00,VWS V14.00,2013-05-27 01:25:00,
2013-05-26 21:30:00,57.3,35.6,30.16,North,0,0.0,0.0,44,0.00,,OVC,0.00,VWS V14.00,2013-05-27 01:30:00,
2013-05-26 21:35:00,57.3,35.6,30.16,NNE,22,0.0,0.0,44,0.00,,OVC,0.00,VWS V14.00,2013-05-27 01:35:00,
2013-05-26 21:40:00,57.0,35.3,30.16,NNE,22,0.0,0.0,44,0.00,,OVC,0.00,VWS V14.00,2013-05-27 01:40:00,
2013-05-26 21:45:00,57.0,35.9,30.16,NNE,22,0.0,0.0,45,0.00,,OVC,0.00,VWS V14.00,2013-05-27 01:45:00,
2013-05-26 21:49:00,56.8,35.7,30.16,NNE,22,0.0,0.0,45,0.00,,OVC,0.00,VWS V14.00,2013-05-27 01:49:00,
2013-05-26 21:54:00,56.4,35.9,30.17,NNE,22,0.0,0.0,46,0.00,,OVC,0.00,VWS V14.00,2013-05-27 01:54:00,
2013-05-26 21:59:00,56.1,36.2,30.17,NNE,22,0.0,0.0,47,0.00,,OVC,0.00,VWS V14.00,2013-05-27 01:59:00,
2013-05-26 22:04:00,55.7,37.4,30.17,NNE,22,0.0,0.0,50,0.00,,OVC,0.00,VWS V14.00,2013-05-27 02:04:00,
2013-05-26 22:09:00,55.2,38.4,30.17,NNE,22,0.0,0.0,53,0.00,,OVC,0.00,VWS V14.00,2013-05-27 02:09:00,
2013-05-26 22:14:00,54.6,37.8,30.18,NNE,22,0.0,0.0,53,0.00,,OVC,0.00,VWS V14.00,2013-05-27 02:14:00,
2013-05-26 22:19:00,54.3,38.0,30.18,NNE,22,0.0,0.0,54,0.00,,OVC,0.00,VWS V14.00,2013-05-27 02:19:00,
2013-05-26 22:24:00,54.1,37.4,30.18,NNE,22,0.0,0.0,53,0.00,,OVC,0.00,VWS V14.00,2013-05-27 02:24:00,
2013-05-26 22:29:00,53.7,37.9,30.18,NNE,22,0.0,0.0,55,0.00,,OVC,0.00,VWS V14.00,2013-05-27 02:29:00,
2013-05-26 22:34:00,53.7,37.5,30.18,NNE,22,0.0,0.0,54,0.00,,OVC,0.00,VWS V14.00,2013-05-27 02:34:00,
2013-05-26 22:39:00,53.7,37.0,30.18,North,0,0.0,0.0,53,0.00,,OVC,0.00,VWS V14.00,2013-05-27 02:39:00,
2013-05-26 22:44:00,53.7,37.0,30.18,NNW,338,0.0,0.0,53,0.00,,OVC,0.00,VWS V14.00,2013-05-27 02:44:00,
2013-05-26 22:49:00,53.4,37.2,30.19,NNW,338,0.0,0.0,54,0.00,,OVC,0.00,VWS V14.00,2013-05-27 02:49:00,
2013-05-26 22:54:00,53.4,37.7,30.18,NNW,338,0.0,0.0,55,0.00,,OVC,0.00,VWS V14.00,2013-05-27 02:54:00,
2013-05-26 22:59:00,52.8,37.5,30.19,NNW,338,0.0,0.0,56,0.00,,OVC,0.00,VWS V14.00,2013-05-27 02:59:00,
2013-05-26 23:04:00,52.7,37.9,30.19,NNW,338,0.0,0.0,57,0.00,,OVC,0.00,VWS V14.00,2013-05-27 03:04:00,
2013-05-26 23:09:00,52.3,37.5,30.19,NNW,338,0.0,0.0,57,0.00,,OVC,0.00,VWS V14.00,2013-05-27 03:09:00,
2013-05-26 23:14:00,52.1,38.2,30.20,NNW,338,0.0,0.0,59,0.00,,OVC,0.00,VWS V14.00,2013-05-27 03:14:00,
2013-05-26 23:19:00,51.9,38.9,30.20,NNW,338,0.0,0.0,61,0.00,,OVC,0.00,VWS V14.00,2013-05-27 03:19:00,
2013-05-26 23:24:00,51.6,39.4,30.20,NNW,338,0.0,0.0,63,0.00,,OVC,0.00,VWS V14.00,2013-05-27 03:24:00,
2013-05-26 23:29:00,51.4,38.8,30.20,NNW,338,0.0,0.0,62,0.00,,OVC,0.00,VWS V14.00,2013-05-27 03:29:00,
2013-05-26 23:34:00,51.2,39.5,30.21,NNW,338,0.0,0.0,64,0.00,,OVC,0.00,VWS V14.00,2013-05-27 03:34:00,
2013-05-26 23:39:00,50.9,39.2,30.21,NNW,338,0.0,0.0,64,0.00,,OVC,0.00,VWS V14.00,2013-05-27 03:39:00,
2013-05-26 23:44:00,50.7,39.4,30.20,NNW,338,0.0,0.0,65,0.00,,OVC,0.00,VWS V14.00,2013-05-27 03:44:00,
2013-05-26 23:49:00,50.5,39.2,30.20,NNW,338,0.0,0.0,65,0.00,,OVC,0.00,VWS V14.00,2013-05-27 03:49:00,
2013-05-26 23:54:00,50.5,39.2,30.20,NNW,338,0.0,0.0,65,0.00,,OVC,0.00,VWS V14.00,2013-05-27 03:54:00,
2013-05-26 23:59:00,50.1,39.2,30.21,NNW,338,0.0,0.0,66,0.00,,OVC,0.00,VWS V14.00,2013-05-27 03:59:00,